Change the Weather History Date:

Saturday, August 24, 2013

  Actual Average Record
Temperature  
Mean Temperature 78 °F 74 °F  
Max Temperature 90 °F 84 °F 97 °F (1985)
Min Temperature 65 °F 63 °F 45 °F (1973)
Degree Days  
Heating Degree Days 0 0  
Month to date heating degree days 0 0  
Since 1 June heating degree days 16 92  
Since 1 July heating degree days 0 8  
Cooling Degree Days 13 9  
Month to date cooling degree days 293 232  
Year to date cooling degree days 1132 695  
Since 1 June cooling degree days 1002 650  
Growing Degree Days 27 (Base 50)    
Moisture  
Dew Point 32 °F    
Average Humidity 26    
Maximum Humidity 45    
Minimum Humidity 7    
Precipitation  
Precipitation 0.00 in 0.00 in 0.00 in (2015)
Month to date precipitation 0.00 0.02  
Year to date precipitation 2.97 8.52  
Since 1 July precipitation 0.06 0.04  
Sea Level Pressure  
Sea Level Pressure 29.84 in    
Wind  
Wind Speed 10 mph (SW)    
Max Wind Speed 20 mph    
Max Gust Speed 24 mph    
Visibility 10 miles    
Events      
T = Trace of Precipitation, MM = Missing Value Source: NWS Daily Summary

Daily Weather History Graph

Daily Weather History Graph

Search for Another Location

Airport or City:

Trip Planner

Search our weather history database for the weather conditions in past years. The results will help you decide how hot, cold, wet, or windy it might be!

Date:

Astronomy

Aug. 24, 2013 Rise Set
Actual Time 6:22 AM PDT 7:31 PM PDT
Civil Twilight 5:56 AM PDT 7:57 PM PDT
Nautical Twilight 5:24 AM PDT 8:28 PM PDT
Astronomical Twilight 4:52 AM PDT 9:00 PM PDT
Moon 9:42 PM PDT (8/24) 10:14 AM PDT (8/24)
Length of Visible Light 14h 01m
Length of Day
13h 09m
Waning Gibbous, 83% of the Moon is Illuminated
Aug 24
Waning Gibbous
Aug 28
Last Quarter
Sep 5
New
Sep 12
First Quarter
Sep 19
Full

Hourly Weather History & Observations

Time (PDT) Temp. Dew Point Humidity Pressure Visibility Wind Dir Wind Speed Gust Speed Precip Events Conditions
12:48 AM 69.1 °F 37.9 °F 32% 29.82 in 10.0 mi NNW 12.7 mph - N/A   Clear
1:48 AM 66.9 °F 43.0 °F 42% 29.82 in 10.0 mi North 12.7 mph - N/A   Clear
2:48 AM 66.9 °F 44.1 °F 44% 29.82 in 10.0 mi NNW 16.1 mph - N/A   Clear
3:48 AM 66.9 °F 42.1 °F 40% 29.81 in 10.0 mi NW 10.4 mph - N/A   Clear
4:48 AM 64.9 °F 42.1 °F 43% 29.82 in 10.0 mi NW 10.4 mph - N/A   Clear
5:48 AM 64.9 °F 42.1 °F 43% 29.83 in 10.0 mi NNW 9.2 mph - N/A   Clear
6:48 AM 66.9 °F 39.9 °F 37% 29.83 in 10.0 mi NNW 9.2 mph - N/A   Clear
7:48 AM 71.1 °F 37.9 °F 30% 29.85 in 10.0 mi NW 4.6 mph - N/A   Clear
8:48 AM 73.9 °F 37.0 °F 26% 29.86 in 10.0 mi SSW 6.9 mph - N/A   Clear
9:48 AM 79.0 °F 25.0 °F 14% 29.86 in 10.0 mi South 10.4 mph - N/A   Clear
10:48 AM 82.0 °F 21.9 °F 11% 29.86 in 10.0 mi South 11.5 mph - N/A   Clear
11:48 AM 86.0 °F 21.9 °F 10% 29.86 in 10.0 mi South 11.5 mph 17.3 mph N/A   Clear
12:48 PM 88.0 °F 21.0 °F 9% 29.84 in 10.0 mi SSE 12.7 mph 20.7 mph N/A   Clear
1:48 PM 88.0 °F 24.1 °F 10% 29.84 in 10.0 mi SSE 13.8 mph 23.0 mph N/A   Clear
2:48 PM 88.0 °F 18.0 °F 8% 29.82 in 10.0 mi SW 11.5 mph 19.6 mph N/A   Clear
3:48 PM 89.1 °F 19.9 °F 8% 29.80 in 10.0 mi SSW 8.1 mph 16.1 mph N/A   Clear
4:48 PM 86.0 °F 28.9 °F 13% 29.81 in 10.0 mi Variable 3.5 mph - N/A   Clear
5:48 PM 82.0 °F 26.1 °F 13% 29.83 in 10.0 mi South 13.8 mph - N/A   Clear
6:48 PM 78.1 °F 30.9 °F 18% 29.84 in 10.0 mi South 12.7 mph - N/A   Clear
7:48 PM 72.0 °F 34.0 °F 25% 29.87 in 10.0 mi South 10.4 mph - N/A   Clear
8:48 PM 71.1 °F 35.1 °F 27% 29.88 in 10.0 mi SSW 8.1 mph - N/A   Clear
9:48 PM 70.0 °F 35.1 °F 28% 29.90 in 10.0 mi SW 8.1 mph - N/A   Clear
10:48 PM 70.0 °F 35.1 °F 28% 29.89 in 10.0 mi WSW 3.5 mph - N/A   Clear
11:48 PM 69.1 °F 36.0 °F 30% 29.89 in 10.0 mi West 4.6 mph - N/A   Clear